Location: Burera
(21.3780°N, 81.9534°E)
Time: 01:09:59
(UTC+00:00)

NOSS 3-4 (A) - Pass Details

Date: 13 August 2020
Orbit: 886 x 1326 km, 63.4° (Epoch: 19 September)

Event Time Altitude Azimuth Distance (km) Brightness Sun altitude
Exits shadow 23:37:20 - 227° (SW) 2,829 5.4 -8.2°
Reaches altitude 10° 23:38:08 10° 230° (SW) 2,546 5.1 -8.0°
Maximum altitude 23:43:36 41° 299° (WNW) 1,257 3.8 -6.8°
Drops below altitude 10° 23:49:11 10° 9° (N) 2,594 6.1 -5.5°
Sets 23:51:55 0° 17° (NNE) 3,577 7.0 -4.9°
